This is the latest recevied weather packets stored in our database for station/object LZ3SV-3. If no packets are shown the sender has not sent any weather packets the latest 10 day(s).
| Time | Temp. | Humidity | Pressure | Rain* | Wind** | Luminosity | Snow |
|---|---|---|---|---|---|---|---|
| 1777966280 | 15.56° C | 61% | 991.4 hPa | - | - | - | - |
| 1777965680 | 16.11° C | 60% | 991.5 hPa | - | - | - | - |
| 1777960280 | 11.11° C | 72% | 991.3 hPa | - | - | - | - |
| 1777956680 | 7.78° C | 92% | 990.8 hPa | - | - | - | - |
| 1777956080 | 7.22° C | 94% | 990.8 hPa | - | - | - | - |
| 1777953080 | 7.22° C | 100% | 990.5 hPa | - | - | - | - |
| 1777951280 | 7.78° C | 91% | 990.3 hPa | - | - | - | - |
| 1777947680 | 8.33° C | 88% | 990 hPa | - | - | - | - |
| 1777944680 | 9.44° C | 77% | 989.9 hPa | - | - | - | - |
| 1777941680 | 10.56° C | 72% | 989.9 hPa | - | - | - | - |
| 1777925480 | 15° C | 57% | 990.6 hPa | - | - | - | - |
| 1777924280 | 15.56° C | 56% | 990.5 hPa | - | - | - | - |
| 1777921880 | 15.56° C | 54% | 990.5 hPa | - | - | - | - |
| 1777920680 | 15.56° C | 55% | 990.3 hPa | - | - | - | - |
| 1777920079 | 16.11° C | 54% | 990.2 hPa | - | - | - | - |
| 1777913478 | 19.44° C | 43% | 989.4 hPa | - | - | - | - |
| 1777911678 | 20.56° C | 39% | 989.5 hPa | - | - | - | - |
| 1777903877 | 24.44° C | 28% | 989.9 hPa | - | - | - | - |
| 1777887676 | 16.11° C | 35% | 992.2 hPa | - | - | - | - |
| 1777885876 | 15° C | 36% | 992.5 hPa | - | - | - | - |
| 1777870874 | 7.78° C | 57% | 992.6 hPa | - | - | - | - |
| 1777869074 | 7.22° C | 59% | 992.4 hPa | - | - | - | - |
| 1777867273 | 6.67° C | 62% | 992.3 hPa | - | - | - | - |
| 1777861873 | 6.67° C | 62% | 992.2 hPa | - | - | - | - |
| 1777861273 | 6.67° C | 62% | 992.1 hPa | - | - | - | - |
* Rain since midnight (hover to see other rain measurements)
** Current wind speed in m/s (hover to see current wind gust speed)